Theta_e
337 336 337 338 339 341 342 343 343 345 347 349 350 350 351 351 351 351 353 354 354 353 352 350 349 348 347 347 347 349 351 351 352 350 350 350 351 352 353 352 347 344 344 346 347 348 348 347 346 346 346 346 346 346 347 345 344 343 343 344 342 340 340 341 341 341 339 337 336 334 337 338 339 341 340 339 339 340 343 343 344 342 342 343 347
335 334 335 337 338 340 341 341 344 342 345 348 348 350 350 351 350 351 353 353 353 353 353 352 350 350 348 347 346 347 349 351 349 349 350 352 350 351 352 351 348 343 345 347 349 347 348 347 348 348 348 347 347 349 348 348 346 343 342 339 340 339 338 340 341 341 336 333 332 332 333 334 338 338 336 337 338 339 341 341 342 339 338 341 344
332 333 334 336 338 339 340 341 342 343 344 347 349 349 350 350 350 352 352 353 353 354 354 352 352 353 351 348 348 346 349 352 350 350 352 351 350 350 350 348 347 346 348 349 348 347 348 348 348 349 349 349 348 347 348 346 344 341 339 338 337 339 341 343 341 341 336 331 331 329 326 327 333 333 333 336 337 338 340 339 340 335 335 340 343
330 331 333 335 337 338 339 339 341 342 344 346 347 348 349 350 350 351 352 353 353 354 356 354 354 353 352 351 350 349 348 352 349 350 351 350 349 349 349 348 347 347 348 350 349 348 348 348 349 348 349 350 349 347 346 345 344 342 340 339 339 337 338 337 340 338 339 336 327 326 326 325 322 325 330 334 336 336 338 336 340 335 334 338 341
330 331 332 334 336 337 338 340 341 341 342 344 346 347 348 349 350 351 352 352 353 356 357 354 355 350 351 351 352 350 349 347 346 346 348 349 349 349 349 349 348 349 349 350 350 348 348 347 346 347 347 348 348 346 344 344 343 342 339 339 340 338 336 333 337 339 337 338 336 329 324 319 319 325 328 331 332 334 336 334 338 334 333 337 338
331 331 332 334 336 338 339 339 340 341 341 344 347 348 349 349 350 352 352 352 352 354 356 354 354 349 347 347 345 343 343 343 343 344 344 346 348 350 350 350 349 349 349 350 350 349 347 346 345 344 343 343 345 345 344 342 341 339 339 339 338 339 338 331 332 337 339 339 339 337 334 328 327 328 326 324 331 332 333 335 335 332 334 334 337
332 333 333 334 336 337 338 339 340 341 342 344 346 348 349 349 350 352 352 352 353 353 356 355 351 349 349 348 347 345 344 343 344 345 347 348 350 349 349 350 349 349 348 349 349 350 346 345 343 342 342 341 345 342 340 340 341 341 341 339 338 339 335 332 330 332 335 338 338 338 338 337 335 331 323 324 319 326 328 328 330 332 332 333 333
332 332 333 334 336 337 338 339 340 341 343 344 346 347 348 349 349 351 352 354 353 353 355 355 351 349 348 347 347 346 345 345 342 340 341 346 345 347 348 348 348 347 346 346 346 347 343 341 341 341 342 341 348 342 341 339 339 339 344 339 337 339 336 335 333 330 335 334 337 336 337 337 334 334 334 327 322 319 322 326 328 329 331 331 331
332 333 333 334 335 337 339 339 341 342 343 343 345 347 348 349 350 350 351 353 353 353 354 354 353 350 348 347 346 347 345 345 343 343 340 342 340 341 345 343 340 340 341 341 342 343 347 342 340 340 341 344 347 340 340 339 338 337 339 337 336 336 337 337 334 333 333 334 332 332 331 331 331 333 332 330 325 320 320 321 323 328 328 329 330
333 334 335 335 336 337 339 341 342 342 344 346 346 348 348 349 349 349 350 351 352 352 354 353 353 351 348 346 345 344 344 339 336 336 336 336 337 336 338 336 336 337 338 338 340 342 343 342 339 339 340 342 345 338 338 338 338 338 337 335 335 337 336 338 336 333 334 334 334 332 330 327 329 330 330 329 328 326 321 321 323 321 321 325 329
332 334 335 336 337 338 339 339 341 343 344 345 346 347 348 348 349 349 349 351 352 351 352 351 351 350 348 346 345 343 339 336 333 332 332 332 333 333 334 335 335 336 337 338 340 341 340 343 339 339 339 344 346 337 338 338 338 338 338 338 338 335 334 337 339 338 336 334 332 332 331 330 328 327 327 326 325 323 322 322 321 322 323 322 327
332 334 335 336 337 337 339 339 341 342 343 344 345 347 348 349 349 348 349 350 350 350 350 350 350 349 348 345 344 342 338 335 332 332 331 331 331 332 333 333 333 333 335 336 338 339 340 340 341 340 342 342 339 337 337 337 338 337 337 337 336 335 336 339 337 336 335 334 332 332 331 332 331 331 330 327 326 325 324 324 322 323 323 323 326
332 333 334 336 336 337 337 339 341 342 343 344 345 346 348 348 349 348 348 349 349 350 349 349 348 347 346 343 343 340 337 336 333 332 331 330 330 332 332 332 332 332 333 335 336 337 339 338 338 338 340 340 339 336 337 338 338 338 337 337 337 336 337 338 336 336 335 336 337 334 334 333 334 335 333 330 328 327 326 321 321 324 321 321 324
332 333 334 336 337 337 338 339 341 342 343 344 345 346 347 348 348 348 348 349 349 349 349 348 347 346 344 341 340 339 336 335 332 331 331 331 330 332 332 332 332 332 333 335 337 337 339 338 340 338 338 338 338 337 337 337 337 337 336 336 336 337 336 336 336 336 335 337 337 334 332 333 335 335 334 332 329 327 324 322 320 320 320 320 322
332 333 334 335 337 338 339 340 341 342 344 344 345 346 347 347 348 348 348 349 349 348 348 348 346 345 341 339 337 336 335 333 332 332 331 330 331 333 333 333 332 332 333 336 338 337 338 336 337 336 335 335 339 338 339 338 339 338 338 336 337 335 336 336 336 334 335 335 334 335 335 334 335 335 333 332 331 329 326 324 323 316 316 317 318
331 333 334 335 338 339 339 340 341 342 344 345 345 346 346 347 348 348 348 348 348 348 347 347 346 343 338 335 333 335 336 333 333 335 332 331 332 333 332 332 332 332 334 336 337 337 336 335 338 337 335 335 336 338 338 338 336 336 336 337 336 339 336 336 337 335 335 336 335 334 333 334 335 335 334 334 332 332 329 326 326 321 317 313 316
331 333 334 335 337 339 340 341 341 343 343 345 346 347 347 347 347 347 348 348 348 348 346 346 344 340 336 333 332 333 332 330 330 332 332 332 333 332 332 331 331 332 334 336 336 335 334 335 336 337 335 335 334 336 335 335 334 336 337 335 335 335 338 337 337 336 337 335 335 334 334 334 335 334 334 334 333 332 330 329 327 323 322 317 316
331 333 335 336 337 339 340 342 342 343 343 345 346 348 348 349 348 348 348 347 348 347 346 344 342 338 335 332 331 332 331 330 330 332 332 332 332 331 331 330 330 333 335 336 335 334 333 341 335 336 335 334 334 334 334 335 335 335 334 334 335 335 335 336 337 337 336 336 336 336 334 334 335 333 333 334 332 331 330 329 328 327 326 321 319
330 332 334 335 337 338 340 341 343 343 345 345 347 348 349 349 349 348 348 348 348 347 346 344 342 338 335 332 331 332 333 331 331 334 332 331 331 330 330 330 330 333 335 335 333 333 333 336 334 334 333 334 333 333 334 334 333 333 333 334 334 334 334 334 335 336 336 336 336 335 335 333 334 333 333 332 332 330 329 329 328 326 324 324 322
330 332 333 335 337 339 340 340 342 343 344 345 346 347 347 348 349 348 348 349 348 346 345 342 340 337 334 333 332 332 332 331 331 332 331 331 331 330 330 329 330 334 333 333 333 333 333 332 333 333 333 333 333 333 333 334 332 333 333 333 334 334 333 334 335 335 335 336 335 334 334 334 334 332 332 331 330 330 329 328 328 327 326 325 325
330 332 333 335 337 339 340 341 342 343 345 345 345 345 346 348 348 348 347 347 347 345 343 342 338 336 334 332 331 331 331 331 331 331 331 331 331 332 329 330 331 331 331 331 331 332 332 332 331 334 333 333 333 333 332 332 331 332 332 332 332 332 332 333 334 334 334 334 334 334 334 334 334 332 331 331 329 329 329 328 328 327 326 326 324
329 332 333 335 337 339 340 342 342 342 343 343 345 345 345 346 347 348 348 347 346 345 343 341 337 335 332 331 331 331 332 331 330 330 330 330 331 331 330 330 328 329 331 330 331 332 333 331 330 331 332 332 332 332 331 331 331 331 331 332 332 331 331 332 333 333 334 334 334 334 334 334 334 332 331 330 330 329 327 327 327 326 325 325 325
328 331 333 335 336 338 340 341 341 341 342 343 344 344 345 346 347 347 347 347 347 346 344 341 335 333 332 331 332 332 331 330 330 331 329 330 329 330 331 329 329 328 331 330 331 331 332 332 331 332 331 331 331 331 332 331 331 331 331 331 332 331 331 331 331 332 333 333 332 333 333 334 333 332 331 330 330 328 327 326 324 325 324 325 325
328 331 333 334 336 338 339 340 340 341 341 342 343 344 345 345 346 347 347 347 347 346 343 338 334 333 332 331 331 332 330 330 330 330 329 329 330 329 331 329 329 328 328 331 332 331 332 331 331 332 331 331 331 331 331 331 331 331 330 330 331 331 331 331 331 332 332 332 331 331 331 332 333 331 331 330 329 328 327 327 325 326 326 325 325
325 328 331 333 334 335 337 339 340 341 341 342 342 343 344 344 346 346 347 347 347 346 341 336 334 333 332 332 332 332 331 330 330 331 331 331 330 329 331 330 329 328 329 329 332 332 331 331 330 330 330 330 331 331 331 330 330 331 330 330 330 330 331 331 331 331 331 332 330 330 331 331 331 330 330 329 329 327 327 327 326 326 326 325 325
324 326 329 330 332 335 337 338 339 340 341 341 342 343 343 344 345 346 346 346 346 345 340 335 333 332 332 332 332 332 331 332 332 331 332 333 332 331 330 330 330 328 329 329 329 330 331 330 330 330 331 331 331 331 331 331 330 330 330 330 330 331 331 331 331 330 330 331 331 331 331 331 330 329 329 329 329 328 328 327 326 326 326 326 325
323 325 327 330 331 333 335 337 339 340 340 341 341 342 343 343 344 345 346 346 346 344 339 335 333 332 332 332 332 332 333 333 333 333 334 333 333 333 331 329 331 330 329 328 328 329 332 331 330 330 331 331 331 330 330 330 330 329 329 330 330 330 331 331 331 331 330 330 330 330 331 331 330 330 329 330 329 329 328 327 328 327 328 326 325
323 324 325 327 329 332 333 335 337 339 340 341 341 342 342 343 343 344 345 346 345 343 338 335 333 332 332 332 332 334 333 332 333 333 331 330 331 332 331 330 331 330 329 329 329 329 330 332 331 331 331 332 331 330 329 329 329 329 329 329 330 331 331 330 330 330 330 331 331 331 331 331 331 331 331 331 330 329 329 328 328 328 327 325 324
322 323 324 325 326 329 332 334 336 337 338 340 341 341 342 343 343 344 345 345 345 341 337 335 332 332 332 333 332 333 332 332 332 329 329 331 332 332 332 331 330 331 331 330 330 330 330 330 330 331 331 331 330 329 329 328 328 328 329 329 330 330 330 330 330 329 329 329 329 330 330 330 331 331 328 327 327 325 329 328 328 328 326 325 324
322 323 324 325 326 328 330 333 334 336 337 338 339 340 341 341 342 343 344 344 342 339 336 333 332 332 333 333 331 331 331 330 326 327 329 330 331 332 332 330 330 330 330 331 330 330 330 329 329 329 329 329 328 329 330 327 328 330 329 329 329 330 330 330 330 330 329 328 329 329 330 331 330 328 327 325 323 321 321 327 330 329 327 326 325
322 323 323 325 326 327 329 331 332 334 336 338 339 340 341 341 341 342 343 342 341 337 335 333 332 333 333 331 329 329 329 328 325 327 329 329 330 331 331 331 330 329 329 330 331 329 328 329 328 328 327 328 328 329 326 324 325 328 331 329 328 329 330 330 330 330 330 330 330 329 329 329 330 329 330 326 323 322 322 321 320 321 322 328 326
321 323 323 324 325 326 327 329 331 333 335 336 338 339 339 340 341 341 342 340 338 336 335 334 333 333 332 330 328 327 326 327 326 328 329 330 331 332 331 330 330 329 329 329 329 328 328 328 327 327 326 327 328 326 323 323 325 326 329 332 330 329 329 329 329 329 330 330 329 328 328 328 328 328 329 329 328 326 323 322 321 320 319 319 320
322 323 324 323 324 326 327 328 329 331 333 335 338 337 338 339 340 341 340 338 336 335 334 333 333 332 331 331 328 325 327 329 330 330 330 331 331 331 331 330 330 330 330 328 328 328 328 327 327 327 326 328 328 326 323 323 323 324 325 328 331 331 329 329 329 329 329 328 328 328 328 328 327 326 328 330 330 330 324 321 319 319 319 318 318
322 323 324 324 325 326 328 328 330 332 334 336 338 338 339 340 340 340 338 336 335 334 334 333 333 332 332 331 329 327 329 330 331 330 330 329 329 329 330 330 331 331 330 329 329 329 329 328 327 327 328 329 329 325 322 321 321 321 323 326 331 331 330 329 329 328 328 327 327 326 326 326 327 328 328 328 328 328 327 327 327 327 326 325 320
322 323 324 325 327 328 329 329 330 332 334 336 337 338 339 339 339 338 337 335 334 334 333 333 333 333 332 331 329 328 327 327 328 329 329 328 328 329 330 330 331 330 330 329 329 328 328 329 329 329 329 329 330 323 320 319 318 318 320 324 329 329 329 328 328 327 327 327 325 325 325 325 326 327 328 328 328 327 327 326 325 325 325 325 325
324 325 326 327 328 329 329 330 333 332 333 334 336 338 338 338 338 337 335 334 334 333 333 333 333 332 332 330 328 327 326 327 328 329 329 328 328 329 330 331 331 330 330 330 330 329 329 329 329 329 329 329 331 322 320 319 317 317 320 326 327 327 327 327 326 325 325 325 325 325 325 325 326 326 323 320 321 323 322 322 322 322 323 323 323
325 327 328 329 330 330 330 332 332 331 331 332 335 338 338 337 336 336 335 334 333 333 333 333 333 333 333 330 329 327 328 329 329 328 328 328 328 329 330 331 331 330 329 328 329 328 330 329 329 330 329 329 330 325 318 315 315 316 318 326 326 326 325 324 324 323 324 324 325 325 325 326 326 326 321 315 315 317 320 320 320 319 320 319 319
325 324 324 326 327 330 333 333 332 332 332 333 335 337 336 335 335 335 334 333 333 332 333 333 333 333 333 331 329 328 329 331 331 329 329 330 330 331 331 332 331 330 329 329 329 329 330 330 329 329 330 330 330 326 318 314 313 315 319 326 325 324 323 323 323 322 323 323 324 327 328 328 325 324 315 313 315 317 319 318 317 316 315 316 318
320 322 324 323 327 331 334 334 333 333 332 333 335 335 334 334 334 334 334 333 332 333 333 333 334 334 334 333 331 330 331 330 331 331 331 330 330 330 332 332 332 331 330 330 330 328 328 328 329 329 330 331 331 327 317 315 314 313 320 325 324 323 322 321 321 321 320 322 323 323 322 319 318 316 309 310 310 313 316 316 316 315 315 316 318
331 333 330 329 335 336 333 333 333 333 333 334 334 334 334 333 333 334 333 333 333 334 334 335 335 335 335 334 333 333 333 332 331 332 332 331 332 332 332 331 330 330 330 330 330 329 328 328 328 330 331 331 330 328 328 312 311 309 316 325 323 322 322 322 319 320 322 322 321 321 321 316 313 310 307 304 306 306 314 316 315 316 315 315 317
331 334 338 332 332 332 332 333 333 333 333 334 333 333 333 333 332 333 333 334 336 336 335 335 335 335 334 334 334 333 332 333 333 334 334 335 333 332 332 331 329 328 328 328 327 328 327 327 325 326 326 324 325 324 319 308 306 308 314 317 322 323 322 322 319 320 320 320 320 320 319 316 312 308 304 303 301 303 308 315 316 316 316 315 310
334 333 330 328 328 328 328 328 328 330 331 332 334 333 333 332 331 332 334 335 336 335 335 335 335 335 334 334 334 334 334 333 334 333 331 332 332 332 331 331 330 329 327 327 327 326 323 321 321 322 322 321 325 326 321 311 308 307 310 313 321 323 322 319 317 316 315 317 318 318 319 316 308 306 303 301 300 302 306 314 315 305 304 305 311
328 327 329 329 325 325 327 327 329 329 329 331 332 333 332 331 330 330 331 333 334 334 335 335 334 334 334 334 334 334 333 333 332 332 331 330 330 330 330 329 328 327 327 326 324 322 319 321 322 322 322 323 324 326 318 317 307 304 305 309 312 315 313 320 318 318 317 317 316 317 318 314 305 300 298 299 301 302 305 312 304 302 304 306 310
328 327 327 327 324 325 325 326 327 328 328 329 330 331 331 330 329 328 331 333 333 333 334 333 334 333 333 332 334 334 334 333 333 331 330 329 328 328 328 328 328 327 326 324 322 322 322 322 322 322 321 320 320 322 318 315 313 306 304 302 303 305 309 316 316 316 314 314 316 316 315 305 300 297 296 300 302 304 312 302 300 303 307 310 312
328 327 329 323 323 323 323 325 325 327 327 327 328 331 332 330 328 330 331 331 332 332 332 332 331 331 331 332 333 333 332 331 331 330 328 327 326 326 325 325 327 326 324 324 322 321 320 320 320 320 320 319 319 319 319 316 311 305 301 300 301 302 302 304 313 315 317 316 309 304 301 300 300 298 299 303 306 306 304 304 305 306 310 311 310
326 326 328 322 322 323 324 326 325 325 326 329 326 329 332 329 328 331 330 331 331 331 331 330 330 330 330 329 329 330 330 330 330 330 330 329 327 326 326 323 323 323 323 323 321 319 318 318 318 318 318 318 318 317 316 315 315 313 310 307 307 307 308 307 311 313 309 306 305 305 306 304 304 306 311 315 314 313 308 308 308 308 309 310 309
326 327 328 321 322 323 325 326 326 324 326 326 326 327 329 328 329 328 330 330 330 330 330 329 328 328 328 328 328 328 329 330 329 328 328 328 325 324 324 323 322 320 320 320 319 319 318 317 318 318 318 317 317 315 315 313 312 313 313 313 312 311 309 309 312 311 307 309 311 313 313 310 311 311 312 310 311 309 310 309 309 309 309 308 308
324 326 326 321 321 322 325 325 324 325 325 326 326 327 327 328 328 329 330 331 330 330 328 327 327 327 327 327 328 333 330 326 325 325 324 323 322 321 321 321 319 319 318 318 319 319 318 318 318 318 318 318 317 315 314 312 309 310 310 311 313 311 307 308 308 306 304 308 313 309 309 314 313 311 309 308 309 309 309 308 306 307 307 307 306
322 323 325 322 322 323 323 324 324 323 325 326 326 327 327 327 328 329 330 330 329 330 328 326 327 327 327 329 330 332 325 319 313 309 306 306 309 312 317 315 309 311 315 319 318 318 320 319 319 318 318 318 317 316 317 308 311 306 308 308 308 307 305 307 304 300 307 311 313 311 312 309 310 309 306 304 304 304 305 305 303 303 305 305 305
324 325 325 325 326 324 324 324 323 322 320 319 318 321 326 328 329 329 330 330 329 327 326 326 326 327 327 324 321 319 317 316 314 313 311 307 302 297 300 309 310 308 304 300 306 319 320 319 316 313 314 318 318 318 302 297 295 295 295 297 297 295 297 302 300 298 306 309 308 307 308 307 307 306 304 303 302 302 303 302 303 302 304 304 304
324 324 322 322 322 326 324 322 319 317 316 316 317 319 324 327 329 330 330 328 327 327 326 326 326 324 323 321 319 318 318 317 316 316 316 315 311 306 295 294 298 301 298 295 298 303 307 311 315 309 305 302 302 297 294 293 293 293 293 292 291 292 292 293 295 304 308 308 308 307 305 306 305 304 303 303 303 303 303 302 301 302 302 302 302
Wind_Speed
12 12 12 12 13 11 10 9 9 9 9 10 10 10 10 10 9 9 8 7 7 7 6 6 6 5 3 6 6 6 5 5 5 4 4 4 5 5 7 7 7 5 4 5 4 3 3 3 4 3 3 3 3 3 4 4 3 3 3 3 3 4 3 2 3 3 4 5 3 4 5 2 2 1 3 4 4 3 1 3 3 4 5 5 5
7 7 9 9 10 11 10 8 8 10 9 9 11 11 10 9 10 10 8 7 8 8 7 6 6 7 6 6 5 4 5 5 6 5 5 4 5 5 5 6 7 7 7 6 5 5 4 4 3 3 3 3 3 4 4 3 3 2 2 2 2 3 2 1 1 2 1 1 4 5 4 4 1 2 4 4 3 3 3 3 4 5 5 5 5
9 11 11 11 12 12 10 10 10 12 12 12 12 11 10 9 9 9 8 8 8 8 7 7 6 6 6 5 6 4 4 4 4 3 4 5 5 5 5 6 6 6 6 6 5 5 5 4 3 3 4 4 3 3 4 4 4 4 3 3 1 1 3 3 2 3 1 0 1 1 3 5 4 4 2 3 3 3 2 4 4 5 6 4 3
12 12 13 12 12 12 10 10 11 10 10 10 10 12 10 9 10 10 9 9 8 8 8 8 7 6 4 4 4 4 4 3 3 2 4 4 5 5 4 6 7 7 6 6 6 6 6 5 5 5 5 4 4 4 4 4 4 3 3 3 2 2 1 2 2 1 3 1 2 1 0 1 2 3 4 4 2 3 3 4 3 5 5 5 3
13 12 12 12 12 13 14 13 11 11 11 12 11 11 9 12 12 11 10 10 8 9 9 7 6 5 4 4 4 4 4 3 3 2 4 5 4 6 7 6 6 6 5 6 6 6 6 7 7 6 5 5 5 5 5 5 4 3 3 2 3 3 1 1 1 1 1 1 2 2 1 2 1 3 3 3 3 3 4 4 4 5 7 5 4
15 15 14 13 13 11 11 11 12 12 12 12 12 13 12 11 11 11 9 8 9 10 10 8 8 8 7 6 6 4 4 4 6 7 7 6 8 6 5 6 6 5 5 6 7 6 6 8 7 4 4 4 5 5 5 4 4 4 3 3 3 4 2 1 2 1 1 1 1 1 2 0 1 2 1 3 4 1 3 3 3 4 5 5 4
12 12 12 13 13 13 13 13 14 13 13 12 11 12 13 12 12 12 11 8 8 9 10 8 8 8 10 9 8 8 7 6 5 5 7 7 5 6 6 5 6 6 6 6 7 7 6 5 5 5 4 4 4 4 4 4 3 3 3 3 3 3 3 2 1 2 2 2 1 2 2 2 2 1 1 1 4 5 3 3 3 4 5 4 3
14 14 14 15 15 16 17 16 14 15 13 11 11 11 13 12 12 12 9 8 8 8 9 9 9 9 8 8 7 7 8 7 7 6 5 4 6 6 5 6 6 5 5 6 6 5 5 5 4 4 4 3 4 4 3 2 1 0 2 2 3 4 5 4 2 1 2 1 1 1 1 2 3 1 2 2 2 2 6 3 0 5 5 2 3
16 14 15 16 17 17 15 15 15 13 11 12 12 12 12 12 12 11 10 9 9 9 10 9 9 9 9 8 7 6 6 5 4 3 5 5 6 5 6 6 5 5 5 6 6 6 5 5 5 4 4 4 3 3 3 3 4 4 3 3 3 3 3 3 2 2 2 2 2 1 2 2 1 1 2 1 1 1 4 3 6 2 3 2 4
14 16 16 16 16 16 16 14 12 13 12 12 12 11 11 11 11 11 12 9 9 10 10 10 10 8 8 8 9 7 5 3 4 5 6 6 7 6 6 6 5 5 4 5 5 5 5 5 5 6 5 4 3 4 4 4 4 4 4 3 3 2 1 4 3 2 3 2 2 3 2 2 2 1 2 1 2 2 4 5 5 6 5 4 4
14 15 15 16 15 13 11 13 15 12 11 11 12 12 11 12 12 13 13 10 10 11 11 11 10 9 9 10 10 9 8 7 6 5 5 5 7 6 7 6 5 6 5 4 5 5 5 5 5 5 4 4 4 4 5 5 4 4 3 3 4 3 2 2 2 3 3 3 3 4 4 4 4 4 5 4 4 2 2 5 6 4 4 6 3
15 15 15 14 11 11 11 13 13 14 12 12 12 12 12 12 12 14 12 11 10 10 11 11 10 10 10 10 11 9 10 8 10 10 9 9 8 8 6 5 5 4 4 5 5 5 5 5 5 5 5 4 4 4 4 4 3 3 3 3 3 3 2 2 2 2 4 3 5 5 4 4 3 4 4 5 6 4 4 3 3 3 4 4 4
15 15 14 13 14 14 14 15 13 13 14 15 14 13 12 12 14 15 14 12 11 11 12 11 11 11 10 10 10 9 10 10 10 10 9 9 8 7 7 7 5 5 5 6 6 7 6 5 5 5 4 4 5 4 4 4 4 4 4 4 3 4 4 4 3 4 3 4 4 4 4 3 5 4 4 4 4 4 5 4 3 3 4 4 2
16 15 15 15 15 15 16 15 15 14 15 15 14 13 12 12 14 15 15 13 11 11 12 12 12 11 11 10 10 9 10 10 9 10 9 8 8 8 8 8 7 7 7 7 7 7 6 6 6 6 5 5 5 6 5 5 4 4 4 4 4 4 3 4 4 4 4 4 2 2 4 5 4 4 4 4 5 5 4 4 2 3 3 4 2
15 16 16 16 16 17 16 16 16 16 16 15 14 14 13 14 14 16 15 13 14 14 11 12 11 11 10 10 9 9 9 9 9 9 10 9 7 8 7 6 7 7 7 7 6 7 7 6 6 6 6 6 5 5 4 4 4 4 4 4 3 3 4 4 4 5 5 5 5 5 4 3 4 4 5 6 5 6 5 4 4 3 2 3 3
15 15 15 16 16 16 15 15 14 14 16 14 15 14 14 15 16 17 18 15 13 13 12 12 11 9 9 10 10 10 8 8 8 7 8 9 9 8 8 8 8 7 6 5 7 7 7 7 6 6 6 6 6 6 5 4 4 4 3 3 4 3 4 5 5 5 5 6 6 5 3 5 4 4 5 5 5 6 5 4 4 3 4 6 2
15 16 15 16 14 15 15 15 14 14 13 15 16 16 18 17 16 17 16 13 13 14 13 11 10 10 10 10 9 9 10 11 10 10 9 7 8 8 8 9 8 7 7 6 7 6 6 6 6 6 6 6 5 5 4 4 4 3 3 3 4 3 4 5 4 4 5 4 4 6 6 5 5 3 4 5 5 4 4 4 6 7 5 3 4
17 17 16 17 18 19 18 17 18 18 18 18 19 17 16 16 16 16 15 15 15 14 14 12 12 11 10 9 8 9 9 9 7 9 7 7 6 6 6 6 7 7 7 6 6 7 6 5 6 6 6 5 5 4 4 4 3 3 4 4 5 2 3 3 4 4 4 4 4 4 4 5 4 4 5 5 5 6 5 5 5 3 5 6 4
13 15 14 15 16 16 16 17 17 18 18 18 18 16 13 12 13 14 16 17 15 11 9 8 9 8 7 8 8 6 5 5 5 5 6 7 8 7 7 7 6 5 5 6 6 6 5 5 5 5 4 5 5 5 4 4 4 4 4 4 4 2 3 4 4 3 4 3 5 6 4 5 4 5 5 5 4 4 4 4 4 3 6 5 5
15 15 16 17 17 18 19 19 18 18 17 17 17 14 15 15 14 14 14 10 7 10 11 12 10 7 7 7 8 8 8 8 8 8 7 7 6 7 6 6 7 6 6 6 6 6 6 5 5 5 5 5 5 5 5 5 4 4 4 4 4 2 4 5 6 4 3 3 4 5 6 6 4 4 4 4 4 4 5 5 4 4 4 5 5
15 16 16 16 16 17 18 18 18 18 17 16 14 16 18 15 14 15 14 13 13 12 11 10 8 8 10 10 9 9 10 9 9 9 8 6 6 6 7 7 5 6 6 6 6 6 6 6 6 5 5 5 5 6 5 4 4 5 4 5 4 4 5 6 5 6 4 4 4 5 6 6 4 5 5 4 4 5 4 4 5 4 4 4 5
16 16 16 15 15 17 17 15 14 13 14 14 14 14 14 14 15 15 14 13 14 13 13 12 9 8 9 11 12 10 9 8 8 7 8 7 7 6 5 4 6 6 6 6 6 6 5 6 5 6 6 6 6 6 6 4 5 5 5 3 4 5 5 6 5 6 6 4 4 5 6 6 4 6 5 5 6 5 5 5 5 5 6 6 5
16 16 15 15 15 16 17 17 17 17 17 17 16 16 17 18 17 15 16 17 16 16 12 9 10 10 11 12 13 12 9 10 11 5 5 4 4 4 5 6 5 5 4 5 6 6 6 5 6 6 6 6 6 6 5 5 5 6 6 5 5 5 6 6 6 7 7 4 4 5 7 5 3 5 5 5 5 5 5 6 7 5 6 6 5
12 13 13 13 13 13 12 13 14 14 14 15 15 16 15 15 16 15 17 18 16 12 11 12 13 14 15 15 15 13 12 12 12 11 8 5 5 6 4 4 5 5 6 5 5 5 5 6 6 6 6 6 6 6 6 5 6 6 6 6 6 5 6 6 6 7 6 5 6 6 7 5 4 5 5 4 4 4 5 6 6 6 6 7 6
10 12 12 11 11 13 14 16 16 16 15 15 15 15 15 16 16 17 17 17 14 10 11 13 14 17 17 17 16 13 12 11 10 9 8 9 8 5 4 5 5 6 6 5 5 5 6 6 7 7 7 7 7 7 6 6 6 6 6 6 6 6 6 7 7 7 5 6 6 7 8 4 3 4 4 4 4 6 6 5 6 6 6 6 5
12 11 10 13 15 14 14 14 14 14 15 14 15 16 16 16 17 15 14 12 11 9 11 13 12 16 17 17 15 10 11 12 10 11 11 7 6 4 4 7 7 8 7 7 7 6 7 8 7 8 7 8 7 6 7 7 7 6 6 6 6 6 7 7 6 6 6 6 7 7 6 4 4 5 5 5 4 6 5 6 7 6 6 5 5
13 14 13 9 9 13 14 14 14 15 14 14 15 15 15 14 14 13 12 11 9 10 11 15 14 16 14 14 10 11 14 13 13 11 8 7 8 10 9 9 8 8 9 8 8 8 7 7 8 7 8 8 8 7 7 7 7 6 6 7 7 7 7 6 6 7 6 6 6 6 6 5 5 5 6 6 6 6 5 7 6 6 5 4 5
6 6 9 13 14 11 12 13 13 13 13 13 12 13 13 14 14 13 11 9 8 11 13 14 14 12 12 13 11 15 16 16 15 15 14 14 10 8 8 8 8 10 10 10 9 9 8 7 8 8 8 7 7 7 7 7 7 7 6 7 7 7 7 6 6 6 6 6 6 6 6 6 6 6 6 7 6 6 5 6 5 5 5 5 6
10 11 10 10 11 11 12 13 14 13 13 13 12 11 10 10 10 9 9 9 10 12 13 13 13 14 15 13 13 16 18 19 16 11 9 5 3 6 7 9 9 10 9 9 9 9 8 8 8 8 8 7 7 7 7 7 7 7 7 7 7 7 7 7 6 6 6 5 5 5 6 6 7 8 10 9 8 7 5 6 6 5 5 5 5
14 11 11 11 12 11 12 12 11 12 13 12 11 11 12 13 12 10 8 9 12 13 13 14 16 16 12 12 15 16 16 15 13 13 11 9 9 10 9 9 10 10 10 9 8 9 9 9 9 8 7 6 7 6 8 13 10 7 7 6 6 7 7 7 7 6 6 6 6 6 6 10 10 10 10 11 12 12 12 9 7 5 6 5 6
9 9 10 10 9 8 7 8 10 11 12 12 12 11 10 10 9 8 8 10 12 12 13 15 15 12 13 14 14 15 15 16 16 12 10 8 12 10 9 10 10 10 10 9 9 9 9 8 8 8 8 7 7 7 12 12 12 13 8 7 7 7 6 6 7 7 8 6 5 6 5 5 6 6 7 10 11 12 12 13 14 14 10 7 6
10 10 8 8 8 8 9 11 12 11 10 9 10 10 8 9 5 6 8 10 11 13 13 12 12 13 14 15 14 15 15 14 11 11 11 11 9 10 10 11 10 11 10 8 9 9 9 8 7 8 8 8 8 10 13 13 13 14 12 9 7 7 6 7 7 8 7 6 6 5 4 3 3 5 5 6 8 10 10 11 12 12 12 12 11
11 10 10 11 11 11 11 11 7 8 9 8 5 4 6 4 7 8 10 11 12 12 12 12 13 15 16 15 15 15 13 11 10 10 10 10 11 12 11 11 12 11 8 9 10 8 8 8 8 9 9 8 8 11 14 14 14 14 15 12 7 7 7 7 7 8 7 7 5 5 4 5 4 6 6 5 5 7 8 9 10 10 10 10 11
9 9 10 9 7 6 6 6 6 5 6 6 8 9 8 8 9 11 12 12 13 12 13 14 14 15 16 15 14 14 14 14 14 12 10 12 14 13 11 10 9 7 9 9 9 9 9 8 9 9 9 9 9 11 14 15 14 14 14 10 6 8 8 8 8 7 7 7 6 5 4 5 5 5 4 4 5 5 5 5 5 5 5 6 7
9 9 8 8 8 6 5 5 7 10 8 8 8 7 8 9 11 11 12 13 13 14 13 14 16 15 14 14 16 17 17 16 14 12 11 12 12 11 10 10 9 10 10 11 11 10 10 9 9 9 8 9 9 13 13 13 13 13 13 9 6 6 7 7 7 6 7 6 5 4 4 5 5 5 4 4 5 7 7 8 8 9 7 6 6
11 12 10 8 9 11 12 12 7 6 7 8 7 8 10 10 10 12 12 13 14 14 14 14 15 15 16 16 17 17 15 13 13 14 13 11 10 10 11 11 9 9 8 8 8 8 10 10 10 10 9 10 9 12 11 12 12 12 11 6 7 8 8 7 6 5 5 4 4 4 4 4 5 5 6 6 5 5 6 7 8 8 7 6 6
7 9 11 11 10 9 8 4 5 7 7 7 7 9 9 10 11 10 12 12 13 13 14 16 15 16 17 17 16 15 14 14 15 12 10 11 11 11 12 9 9 9 9 9 10 10 10 10 10 9 10 10 9 9 9 11 12 11 5 5 6 5 5 5 5 5 4 3 3 3 4 4 5 4 3 5 4 2 4 4 5 6 6 6 7
8 3 4 4 3 2 2 3 5 5 4 5 7 9 10 10 10 11 12 12 14 15 15 16 16 17 17 15 15 16 17 17 12 7 8 10 10 9 9 7 9 10 10 11 10 9 8 9 10 10 9 8 7 8 10 9 9 8 8 6 5 5 4 4 4 2 1 2 3 6 6 4 4 4 4 4 3 1 3 4 4 5 6 7 8
4 5 7 7 5 4 5 3 2 4 4 5 6 10 10 10 10 12 13 13 15 15 15 17 17 16 15 14 14 14 12 10 7 9 9 9 10 11 7 5 8 8 9 8 7 7 7 7 8 6 7 8 7 5 4 6 9 10 8 5 5 4 4 5 3 2 2 2 2 2 2 1 2 2 4 3 3 3 3 4 3 3 5 8 7
6 7 5 7 8 7 6 2 4 6 6 7 9 9 9 11 10 11 13 15 16 17 18 14 11 11 12 11 10 10 9 10 10 11 7 7 5 3 5 7 6 6 6 4 4 5 7 5 3 4 5 6 6 3 2 4 7 9 10 7 5 5 6 5 2 2 2 2 1 2 0 3 1 2 2 1 3 4 4 2 2 3 5 7 4
10 10 9 7 4 4 3 2 2 3 2 6 9 9 9 8 10 11 15 17 14 9 8 9 9 10 10 10 9 10 12 10 9 3 1 2 3 4 4 6 6 5 5 4 5 4 1 3 5 5 5 6 5 5 5 7 2 6 10 9 6 5 4 2 2 1 1 2 2 2 0 2 1 3 2 2 4 4 4 2 2 3 3 6 7
9 10 9 6 5 4 4 5 6 4 2 1 2 6 5 6 8 12 4 5 5 6 7 8 8 9 10 10 10 10 11 8 5 4 4 4 3 4 4 5 4 4 6 6 4 4 5 5 6 8 8 9 7 6 4 3 4 6 8 8 4 3 3 3 2 1 1 2 2 2 1 2 3 1 2 4 4 4 5 2 2 4 7 7 6
6 6 6 6 5 7 7 7 6 5 3 1 1 2 3 4 6 3 1 4 6 7 8 9 9 10 11 10 11 12 10 9 9 7 4 5 5 6 6 6 7 7 7 6 7 7 8 8 8 8 6 3 2 0 2 3 5 6 6 6 5 5 5 3 3 2 2 1 1 1 1 1 2 1 3 3 4 3 3 2 4 6 6 7 6
7 7 6 6 6 5 7 6 5 3 2 2 2 3 3 4 4 2 5 7 8 8 9 10 10 10 11 10 11 12 12 10 7 6 7 7 7 6 7 7 7 7 6 7 7 7 7 6 5 3 1 1 2 3 4 5 6 5 6 7 7 6 5 3 2 1 1 1 1 1 2 3 3 4 3 4 2 2 1 3 5 6 6 5 4
10 9 6 7 6 5 4 4 5 5 4 3 3 4 3 4 3 4 6 8 9 10 10 10 11 10 10 9 9 10 11 8 9 9 7 5 4 4 4 3 5 5 6 6 6 5 5 4 4 5 4 2 3 3 3 4 6 7 7 7 7 7 6 6 2 1 1 0 2 4 6 6 4 2 3 3 2 2 3 4 4 5 4 3 4
7 6 5 5 6 6 6 6 5 5 3 2 2 2 2 3 4 5 6 8 9 10 10 10 10 10 10 10 10 10 11 11 9 3 2 1 3 4 5 4 4 5 5 6 6 5 5 5 5 3 2 3 4 3 3 4 5 5 5 7 7 6 5 3 3 2 2 2 3 4 1 5 8 6 4 3 2 2 1 3 3 4 3 3 4
6 2 1 4 4 4 4 3 3 3 1 2 2 2 4 5 6 6 7 8 9 9 10 9 10 9 10 10 12 10 9 6 6 3 1 1 3 3 3 4 4 6 7 6 5 5 5 5 5 3 3 4 5 4 5 4 4 4 4 5 4 4 4 4 2 0 1 1 2 2 4 6 7 6 6 5 3 2 1 2 2 3 3 3 4
1 1 3 4 4 3 3 4 2 1 1 2 3 5 6 6 6 7 8 9 9 9 9 10 10 9 8 8 9 11 9 6 6 5 3 2 1 3 5 5 6 7 6 5 5 5 6 5 5 5 5 5 5 5 5 5 5 4 4 3 3 2 1 1 1 1 1 2 3 6 7 6 5 4 3 2 2 1 2 2 2 3 3 4 5
1 2 1 4 6 5 5 6 5 3 2 2 2 3 4 7 7 7 9 10 9 9 10 9 8 7 7 7 7 6 7 6 6 7 6 3 3 2 3 0 3 4 2 5 6 5 4 5 5 7 7 5 4 5 6 5 5 6 7 6 3 2 2 1 2 2 2 3 4 4 4 3 2 2 2 2 2 1 1 2 3 3 3 3 3
3 3 1 2 3 3 2 2 3 4 4 4 3 3 4 5 6 7 10 11 11 10 10 8 7 7 7 7 6 6 7 7 7 6 5 5 8 7 3 0 2 5 4 2 3 5 5 5 5 2 0 3 4 3 8 11 9 8 7 7 5 5 4 2 4 5 3 3 2 3 2 3 3 3 2 1 1 1 1 1 1 2 2 3 4
3 3 3 3 3 4 5 4 4 4 4 4 4 4 5 6 7 8 9 11 12 10 9 8 8 7 8 7 8 8 8 9 8 7 5 3 4 3 13 12 6 6 6 9 1 5 9 8 8 6 3 8 9 11 11 10 9 8 8 8 7 6 6 4 5 5 2 2 3 3 3 3 3 3 2 1 1 0 1 1 2 2 2 3 4
Wind_Direction
204 200 198 196 196 194 193 188 190 188 189 189 190 194 194 194 189 202 201 186 180 181 179 169 165 164 166 197 208 205 205 210 212 197 191 188 171 161 159 160 159 171 227 210 217 210 193 201 215 215 213 206 209 230 245 244 238 232 248 252 270 295 303 213 246 243 300 309 296 304 306 298 291 98 57 17 18 20 19 40 42 37 22 14 3
197 199 205 201 199 194 189 188 183 184 195 190 192 195 197 195 194 202 198 191 191 188 182 175 178 183 174 192 186 183 195 194 213 202 190 177 167 169 170 169 171 187 201 197 196 199 200 211 217 227 226 229 231 239 252 261 251 209 229 255 232 234 269 240 165 138 309 268 317 330 315 328 352 82 53 21 13 22 28 41 47 42 27 13 12
204 206 199 200 200 195 189 190 192 191 187 191 194 193 196 196 201 202 200 196 196 187 175 187 188 181 181 176 183 183 218 218 197 180 166 176 181 177 173 175 177 183 181 183 194 197 198 203 213 216 215 214 222 237 252 268 259 245 219 218 299 240 270 291 322 188 257 128 348 316 8 353 336 355 339 11 9 4 31 40 41 34 23 19 19
207 203 201 201 198 195 192 193 194 189 189 192 192 194 194 200 202 202 203 201 194 189 189 195 184 170 162 153 156 146 181 172 153 163 171 163 197 185 186 184 188 188 180 185 190 194 196 205 209 214 212 206 209 217 234 247 251 249 229 219 207 280 290 335 30 185 205 197 343 27 235 89 332 336 323 308 345 342 33 30 34 28 13 10 20
205 205 204 200 198 198 195 195 188 189 190 190 191 193 195 200 203 201 202 199 191 188 190 175 144 125 113 94 106 87 52 94 118 179 199 199 190 198 203 184 188 188 185 191 192 196 201 208 213 215 211 212 209 212 223 232 240 247 225 211 201 216 269 285 317 79 233 223 152 135 25 13 210 268 321 298 334 1 2 5 19 25 11 1 2
202 203 202 201 201 200 200 194 193 194 193 193 191 192 193 200 202 202 204 196 189 190 182 165 169 161 153 152 160 171 160 161 185 195 200 200 207 200 190 191 182 185 190 195 200 198 202 209 208 196 201 193 197 209 217 221 236 237 230 201 207 208 188 97 318 313 345 307 211 169 164 174 259 283 348 329 326 340 315 340 342 26 7 356 353
211 207 200 199 202 198 198 198 198 196 199 191 189 192 194 197 199 199 201 195 188 189 178 171 171 174 177 181 180 184 186 208 197 191 188 201 190 195 200 187 189 180 191 193 199 202 198 196 189 188 188 172 187 183 197 211 209 205 154 164 176 163 149 169 228 269 2 60 14 329 359 42 97 102 56 353 342 317 328 326 337 358 0 350 3
204 205 202 201 198 198 199 199 197 200 195 186 190 191 194 198 196 200 200 191 190 183 180 178 176 180 184 189 191 192 195 201 193 188 188 174 175 186 181 191 188 188 178 193 193 187 178 178 158 148 165 183 177 184 185 175 139 132 161 159 156 158 171 173 206 193 145 175 34 357 349 9 21 53 147 140 164 289 315 315 271 345 343 349 5
202 203 204 201 201 202 200 198 202 198 190 190 191 191 195 198 199 200 199 190 190 184 180 185 183 180 183 185 196 208 200 200 171 155 157 167 159 164 174 183 182 186 184 170 174 178 175 160 158 160 171 172 155 150 133 139 157 159 159 159 158 164 176 156 155 183 167 180 126 97 90 66 50 21 11 66 156 204 273 296 318 354 324 319 339
204 206 206 206 205 202 200 198 196 199 194 193 192 189 193 194 200 200 204 192 188 187 184 184 185 178 181 187 196 200 187 147 153 159 163 163 160 166 164 165 171 168 162 162 165 171 160 155 164 179 174 168 158 166 150 149 157 157 170 161 154 147 185 175 185 165 182 170 143 153 130 111 90 100 194 205 289 254 287 305 309 321 329 314 330
200 204 206 207 207 203 193 196 201 197 196 193 193 192 192 194 199 202 205 194 189 189 183 186 185 181 186 189 195 193 180 163 153 160 152 155 158 166 168 172 170 169 167 168 172 165 165 166 174 186 176 174 163 164 177 177 185 174 166 149 146 161 185 182 204 183 171 162 164 171 179 174 176 174 196 199 192 208 277 285 296 297 284 311 282
199 200 204 205 198 198 193 202 199 198 196 196 197 194 193 196 197 203 204 196 192 189 186 186 184 189 191 188 192 191 175 173 174 173 177 172 171 171 175 157 168 150 163 163 180 172 170 183 187 175 177 176 183 195 193 194 186 171 167 178 178 170 167 173 165 188 193 184 194 196 199 194 184 186 180 181 188 210 201 247 272 298 299 237 287
195 197 200 196 194 193 196 200 197 198 199 197 196 194 196 198 198 201 206 196 193 187 189 187 187 191 190 188 191 184 182 180 179 176 178 173 174 169 161 175 159 156 187 183 188 180 179 174 177 182 193 202 197 195 214 201 182 185 183 184 195 191 194 185 163 207 205 192 212 188 200 190 204 203 168 179 199 188 190 232 248 230 254 304 300
195 195 197 194 194 194 196 196 197 199 200 198 196 195 196 200 201 203 208 194 192 190 190 188 193 193 189 187 185 180 186 182 181 176 180 177 173 171 171 176 175 184 182 193 189 182 180 186 181 190 199 199 194 201 206 203 191 192 186 189 204 221 186 194 202 209 211 223 194 177 198 203 213 191 188 184 185 171 195 210 217 224 228 265 292
195 195 195 194 194 193 194 196 196 198 199 198 196 198 196 200 200 205 207 199 192 193 188 191 193 192 189 187 182 180 181 181 182 180 174 172 175 165 174 172 177 189 186 195 184 175 184 181 186 192 201 204 202 207 211 199 198 192 195 203 208 206 208 207 224 211 217 215 210 216 210 211 220 193 192 199 193 188 184 176 168 251 265 230 261
196 198 196 195 194 194 195 196 199 199 199 199 200 198 199 203 202 203 206 201 195 191 194 192 193 187 185 184 186 182 179 174 175 179 179 173 168 168 173 177 187 184 196 174 188 175 179 187 192 201 204 203 201 205 204 199 192 195 206 210 231 191 204 215 220 202 221 217 211 217 215 231 221 206 194 192 197 188 177 159 160 171 231 286 219
196 196 195 193 191 195 195 194 196 198 198 201 203 201 203 203 202 204 207 201 194 196 194 190 185 183 189 187 181 179 176 176 178 177 175 174 167 171 171 184 183 180 178 184 172 184 182 187 192 200 202 206 204 219 218 207 183 204 217 213 252 216 214 229 223 216 229 221 223 207 213 229 226 203 204 206 201 186 189 177 178 191 169 232 283
197 196 193 191 191 192 194 195 194 194 198 202 206 205 207 205 204 205 204 202 202 194 192 188 186 188 184 184 182 182 182 181 172 170 165 161 172 169 166 165 184 181 172 174 172 177 192 195 190 198 202 197 210 219 225 226 189 214 222 232 242 226 231 262 247 233 244 229 232 230 221 231 223 202 212 208 198 197 185 188 186 185 165 209 220
191 195 194 195 196 195 195 196 198 199 200 203 207 205 207 208 210 207 208 210 204 192 188 186 185 181 168 165 170 188 188 170 162 152 155 166 169 170 167 176 171 169 166 166 172 184 189 199 197 202 199 210 215 227 228 227 206 223 229 238 247 214 239 262 258 227 246 225 229 239 230 239 223 218 221 214 214 199 195 191 192 170 205 209 219
192 192 197 196 194 193 194 196 196 198 202 206 204 201 206 209 208 210 213 208 181 184 188 192 185 157 146 157 176 184 174 168 164 157 165 171 167 161 162 159 179 170 178 178 178 186 188 194 206 208 208 211 216 232 221 224 200 224 230 237 242 194 231 247 264 249 246 235 231 238 237 236 226 220 229 223 217 208 200 200 187 190 205 209 203
191 194 197 195 194 196 199 200 200 200 202 203 200 201 206 204 206 208 206 201 198 194 187 190 160 154 148 169 187 182 179 168 156 158 156 158 153 164 175 182 160 181 175 181 189 192 189 196 200 209 207 207 213 227 221 214 211 230 236 238 247 221 239 253 250 271 250 239 234 241 249 244 222 222 224 219 219 218 207 211 203 202 220 204 205
192 195 194 193 194 197 200 201 202 200 202 201 203 206 208 205 207 206 206 204 203 195 192 184 149 132 152 181 192 191 178 151 144 145 150 163 162 167 179 164 181 192 179 190 197 200 196 195 200 212 213 212 214 223 224 206 220 229 245 204 240 243 243 256 256 260 260 238 239 244 254 250 216 224 216 219 218 210 209 214 217 209 223 233 192
191 193 193 193 193 194 195 195 196 197 200 201 202 203 205 206 205 204 203 207 204 200 186 144 124 133 166 186 192 188 158 140 128 123 164 159 139 161 177 177 195 199 200 198 202 200 202 201 208 212 211 213 216 224 223 205 221 224 237 241 228 233 237 249 250 252 256 250 242 242 251 249 217 220 221 228 217 223 215 222 229 218 233 237 215
196 193 192 192 191 191 192 197 201 203 204 203 204 207 208 208 207 206 207 209 204 194 165 137 136 160 177 188 192 182 158 142 146 155 143 125 168 182 174 191 205 202 198 214 212 207 204 205 210 212 212 216 218 224 224 215 220 217 224 238 241 230 233 239 241 248 251 233 236 244 251 239 221 226 232 226 224 223 221 223 231 234 230 244 239
189 192 193 186 182 188 196 198 199 201 203 203 205 207 207 209 207 208 210 207 200 178 150 144 154 173 187 190 190 177 149 131 126 122 145 173 179 158 160 204 213 213 214 209 220 209 209 207 208 210 213 217 220 217 221 224 224 213 219 228 242 244 237 233 234 239 242 236 235 236 252 232 210 231 244 238 226 225 230 229 238 241 236 240 242
191 190 182 189 192 193 196 198 201 203 203 204 206 208 209 210 211 209 210 202 191 165 149 147 164 181 194 193 186 148 113 111 134 161 172 162 129 136 205 223 213 214 212 214 216 212 207 208 211 213 214 220 221 218 221 232 233 221 219 225 233 234 235 230 232 234 235 231 237 242 248 240 219 223 245 248 236 235 233 234 239 245 244 241 246
188 190 194 184 187 197 198 199 201 202 203 205 207 209 210 212 214 211 208 197 175 155 149 161 177 186 188 194 159 111 117 143 163 165 155 156 177 190 200 215 212 213 211 212 217 215 217 211 216 214 218 221 222 220 222 229 232 227 221 224 229 229 231 228 227 229 234 231 236 241 245 232 230 227 238 242 242 242 236 243 241 247 253 247 249
188 187 185 190 195 193 195 199 202 206 208 212 212 212 211 209 211 208 201 181 158 155 161 171 175 176 184 183 136 123 153 168 181 175 172 180 177 186 199 207 210 212 213 211 212 211 217 213 217 215 221 219 221 224 227 228 228 225 218 222 225 227 229 232 233 232 230 231 230 236 239 236 231 230 225 236 229 243 238 247 245 244 251 249 252
192 198 192 191 192 194 196 198 204 203 206 210 210 212 213 216 215 206 188 173 155 158 167 166 166 177 187 168 142 156 170 177 179 162 157 139 131 225 214 213 214 217 213 210 210 209 213 218 223 220 222 218 216 223 222 218 221 226 216 222 222 223 226 231 235 232 230 231 234 232 235 237 233 241 240 240 241 235 234 244 252 233 239 239 250
202 192 195 197 198 192 197 199 199 201 205 206 207 210 210 210 210 196 175 156 156 165 162 167 177 184 167 149 160 169 172 175 164 170 162 165 198 212 218 221 220 218 215 207 206 209 212 214 217 221 222 217 218 222 223 218 214 218 215 220 223 226 223 225 230 239 236 227 231 229 237 239 244 250 254 252 249 247 241 239 247 239 235 238 246
192 193 197 199 195 196 193 195 203 203 206 205 208 210 210 212 207 182 164 163 158 161 169 174 179 166 157 163 162 169 172 175 181 167 139 200 222 217 208 218 221 218 214 208 203 209 213 216 215 216 216 216 219 221 223 221 222 224 223 222 223 231 218 218 219 225 240 234 228 230 239 252 256 261 262 260 259 256 252 244 243 245 246 239 250
194 198 192 190 192 189 190 200 204 205 204 204 206 207 197 208 178 149 153 152 155 167 172 172 163 163 167 165 166 169 177 176 168 166 164 204 221 224 215 214 219 220 218 207 208 211 212 213 214 217 218 217 219 224 223 224 224 225 223 225 225 228 220 214 215 217 225 228 232 237 238 231 248 250 256 269 269 266 259 257 256 254 252 244 234
191 191 191 195 193 194 198 202 197 198 201 207 184 158 190 152 136 155 141 154 163 167 165 166 169 171 173 169 168 169 167 157 155 156 193 204 217 226 225 216 219 221 215 212 215 209 216 214 214 217 221 222 224 224 222 225 226 227 226 223 232 222 218 216 212 214 219 220 218 229 267 269 262 257 261 259 267 276 271 265 266 271 268 257 246
191 192 189 193 187 190 191 187 184 180 185 179 179 189 173 152 148 147 153 158 161 169 170 172 172 176 176 172 163 164 169 166 170 177 189 206 215 223 226 225 222 219 218 221 216 213 216 216 216 217 222 224 226 228 222 224 228 230 233 225 229 222 223 223 213 208 208 211 208 206 228 264 267 269 258 261 265 265 272 285 285 269 267 266 251
178 180 187 183 180 167 155 163 188 196 192 178 188 173 144 147 151 154 157 159 168 169 174 175 178 179 173 169 171 173 172 170 170 183 198 214 215 218 224 223 216 214 215 216 213 211 216 217 218 216 220 227 232 229 224 226 231 233 236 223 226 223 226 227 217 205 209 208 200 193 207 241 263 274 268 272 285 293 299 297 294 291 288 288 288
185 180 180 164 171 181 187 198 192 167 175 185 177 147 155 160 159 156 162 165 167 173 178 178 180 178 179 178 176 175 169 170 177 202 198 205 214 217 222 221 215 217 220 219 219 211 215 217 217 215 216 232 238 231 224 226 228 232 227 213 209 216 221 220 214 204 208 205 200 195 210 231 247 262 285 304 314 316 303 296 292 293 301 303 297
169 166 178 188 185 182 189 160 160 176 172 183 154 153 149 153 160 160 159 165 169 175 182 185 185 182 183 182 175 164 163 172 188 206 197 204 209 217 226 220 214 215 214 214 216 214 214 215 217 213 216 231 242 237 224 231 234 235 210 212 202 210 213 216 220 211 201 207 201 199 214 235 255 263 318 353 358 351 300 292 293 298 303 308 305
150 126 105 106 97 85 113 154 151 166 178 158 155 151 149 154 161 161 161 168 177 185 186 188 190 188 186 176 166 166 172 181 185 181 208 218 212 218 225 214 215 213 215 217 217 218 217 216 217 216 206 213 235 240 231 236 236 221 197 211 202 191 212 214 224 196 188 220 227 224 229 241 261 283 11 36 14 321 299 291 298 303 311 314 311
122 140 121 113 125 136 141 124 129 148 184 161 156 149 155 164 164 169 170 174 189 191 188 193 194 187 181 171 169 172 171 170 164 206 201 213 215 212 207 200 223 224 228 225 220 217 222 221 217 206 186 200 226 232 169 197 199 184 174 183 171 190 206 222 212 213 223 224 237 238 260 287 262 316 84 60 353 301 274 284 287 300 306 308 308
99 81 102 128 131 105 82 106 193 203 175 169 156 161 165 172 173 166 178 191 195 195 196 191 180 176 173 167 161 155 153 157 195 216 194 206 234 212 191 197 212 215 232 241 217 228 232 234 181 187 197 214 223 251 287 225 178 161 168 155 149 163 210 210 171 200 243 213 228 277 306 95 95 148 116 117 253 261 250 242 230 274 304 297 328
49 46 43 45 46 92 125 127 8 341 273 169 159 157 177 177 174 177 194 203 200 184 164 170 170 163 158 151 143 157 158 175 208 247 256 216 191 210 201 199 211 197 197 197 212 220 341 39 54 40 36 27 22 10 7 353 288 175 171 153 161 186 190 162 161 195 207 254 277 258 241 57 99 154 179 259 261 246 237 220 243 286 284 313 323
56 54 49 44 42 26 32 41 23 40 25 314 195 174 157 159 178 202 223 30 74 129 144 148 154 150 146 150 155 157 157 164 183 181 200 245 264 235 211 200 179 177 193 198 150 115 95 124 135 127 165 180 189 163 204 199 238 202 173 154 141 147 133 144 147 178 192 228 243 268 284 99 117 137 257 254 238 215 232 239 308 300 305 307 303
54 49 52 62 40 14 15 24 21 41 34 42 114 129 113 152 191 199 135 112 97 116 129 139 147 156 159 158 158 159 149 165 191 198 164 219 220 206 202 182 189 185 177 163 147 153 157 190 191 189 175 129 84 165 147 152 203 204 142 114 102 125 134 129 161 205 222 245 240 269 291 58 82 338 268 220 201 239 252 257 301 298 290 288 290
70 82 70 62 47 32 20 16 16 30 53 68 129 149 151 166 187 197 121 127 128 123 133 145 154 157 160 164 161 159 165 173 177 192 195 199 203 197 189 190 186 173 169 169 178 183 195 189 179 144 119 57 103 130 141 179 189 151 117 114 118 128 143 143 148 193 167 243 269 274 306 343 317 283 242 194 177 240 299 323 300 297 308 312 317
55 50 55 62 65 50 35 47 39 25 22 50 102 147 158 164 196 133 125 131 138 140 140 150 156 158 160 154 151 157 159 153 172 191 191 175 191 178 176 187 170 179 177 168 167 188 189 170 170 191 184 140 135 127 146 175 155 135 138 138 137 135 131 131 128 178 211 238 331 315 294 282 247 168 175 161 177 238 264 277 305 334 337 330 328
50 48 51 77 71 59 51 31 32 32 33 38 52 119 154 173 151 136 136 133 138 145 147 147 149 150 145 139 136 151 161 177 193 119 95 205 186 176 187 181 185 177 166 174 173 166 171 173 191 188 131 158 145 142 159 153 152 139 122 125 123 120 125 131 136 113 57 355 309 290 79 108 119 132 139 141 140 123 125 7 352 352 351 335 330
52 13 66 64 70 80 84 75 42 347 21 93 116 116 142 149 150 145 138 134 136 143 146 143 142 141 139 138 143 152 161 146 77 71 29 88 114 139 152 180 192 179 169 158 155 163 179 199 204 156 154 156 156 166 168 159 148 128 132 140 129 107 102 104 116 100 42 60 52 73 114 100 104 111 95 88 87 93 63 355 359 352 341 333 322
181 204 137 104 107 117 129 134 148 238 324 182 166 171 165 160 149 142 134 133 134 139 138 141 139 140 140 138 137 148 143 140 138 132 126 127 123 132 160 179 197 190 149 149 157 185 200 192 184 154 160 166 172 182 185 177 156 148 147 147 126 118 117 132 143 111 68 100 111 119 121 122 119 106 98 82 68 57 45 358 349 350 345 333 324
334 307 265 174 160 154 156 153 154 138 139 163 196 183 166 154 150 141 136 131 128 122 124 129 132 133 142 147 146 139 133 123 95 86 80 94 192 167 47 263 301 356 70 143 176 195 193 184 165 170 168 161 191 201 207 169 157 162 156 150 153 153 155 174 124 117 121 132 126 122 121 112 117 116 104 85 70 37 32 357 347 344 331 313 306
344 52 353 356 52 90 127 138 129 134 141 140 141 129 141 150 139 142 137 130 131 131 132 139 147 146 134 119 99 99 106 109 113 114 117 78 59 97 138 160 39 22 8 283 193 203 186 152 130 119 263 187 196 169 129 132 132 120 106 106 112 127 143 140 134 166 157 122 118 112 106 117 118 121 116 108 79 14 341 333 328 314 325 327 336
324 360 353 40 67 97 109 117 126 123 121 117 106 109 119 131 140 144 139 136 137 134 136 138 136 136 129 122 126 127 139 137 139 132 106 135 180 73 51 49 34 16 13 16 164 182 154 169 159 139 74 60 101 117 127 131 128 129 131 137 148 163 185 178 175 153 151 135 136 123 120 121 125 131 129 142 96 6 355 318 331 337 347 343 338